Regional Weather Roundup
Issued by NWS

Home | Current Version | Previous Version | Graphics & Text | Print | Product List | Glossary On
Versions: 1 2 3 4 5 6 7 8 9 10 11 12 13 14 15 16 17 18 19 20 21 22 23 24 25 26 27 28 29 30 31 32 33 34 35 36 37 38 39 40 41 42 43 44 45 46 47 48 49 50
438
ASUS43 KOAX 162202
RWRNE

WEATHER ROUNDUP FOR NEBRASKA
NATIONAL WEATHER SERVICE OMAHA NE
500 PM CDT MON OCT 16 2017

NOTES: SATELLITE DATA IS BEING USED TO AUGMENT CLOUD COVER ABOVE
       12000 FEET.
       "FAIR" INDICATES FEW OR NO CLOUDS BELOW 12,000 FEET WITH NO
       SIGNIFICANT WEATHER AND/OR OBSTRUCTIONS TO VISIBILITY.


NEZ001>004-019>022-054>056-162300-
NEBRASKA PANHANDLE

CITY           SKY/WX    TMP DP  RH WIND       PRES   REMARKS
SCOTTSBLUFF    CLOUDY    74  21  13 NW12      30.12S
ALLIANCE       CLOUDY    75  20  12 NW20      30.10S
CHADRON        MOSUNNY   71  22  15 N12       30.09R
GORDON         FAIR      71  24  17 NW8       30.08S
KIMBALL        CLOUDY    74  18  11 N13       30.18S
SIDNEY         SUNNY     76  13   9 N18G24    30.14S
$$

NEZ057>060-069>072-079>082-162300-
SOUTHWEST NEBRASKA

CITY           SKY/WX    TMP DP  RH WIND       PRES   REMARKS
NORTH PLATTE   SUNNY     79  34  19 SW8       30.06F
IMPERIAL       SUNNY     81  15   8 NW6       30.09F
LEXINGTON      SUNNY     75  33  21 S15G23    30.08S
MCCOOK         SUNNY     77  33  20 S15G26    30.09S
OGALLALA       SUNNY     78  28  15 N9        30.09S
$$

NEZ005>010-023>029-035>040-094-162300-
NORTH CENTRAL NEBRASKA

CITY           SKY/WX    TMP DP  RH WIND       PRES   REMARKS
VALENTINE      SUNNY     77  22  13 W12G21    30.03S
AINSWORTH      SUNNY     76  29  18 SW9       30.04S
BROKEN BOW     SUNNY     74  39  28 SW9       30.06F
O`NEILL        SUNNY     76  38  25 SW14G23   30.04S
ORD            SUNNY     74  34  23 SW9       30.05F
THEDFORD       SUNNY     76  29  17 SW9       30.07R
$$

NEZ041-046>049-061>064-073>077-083>087-162300-
SOUTH CENTRAL NEBRASKA

CITY           SKY/WX    TMP DP  RH WIND       PRES   REMARKS
GRAND ISLAND   SUNNY     74  35  24 SW16G29   30.10F
AURORA         SUNNY     74  33  22 S21       30.11S
HASTINGS       SUNNY     74  33  22 SW14G22   30.11F
HEBRON         SUNNY     74  33  22 SW14G25   30.15F
HOLDREGE       SUNNY     75  37  25 SW18      30.10F
KEARNEY        SUNNY     75  36  24 S20G25    30.09F
YORK           SUNNY     73  34  23 S15G22    30.12F
$$

NEZ011>018-030>034-042>045-162300-
NORTHEAST NEBRASKA

CITY           SKY/WX    TMP DP  RH WIND       PRES   REMARKS
NORFOLK        SUNNY     74  36  25 S12       30.06F
ALBION         SUNNY     76  37  25 S14G21    30.07F
BLAIR          SUNNY     74  38  26 S15G22    30.12F
COLUMBUS       CLOUDY    73  36  25 SW18G26   30.09F
FREMONT        SUNNY     73  37  27 S12       30.11F
TEKAMAH        SUNNY     74  34  23 S16G26    30.09F
WAYNE          SUNNY     73  31  21 SW16G24   30.05F
$$

NEZ050>053-065>068-078-088>093-162300-
SOUTHEAST NEBRASKA

CITY           SKY/WX    TMP DP  RH WIND       PRES   REMARKS
LINCOLN        SUNNY     74  37  26 SW20G26   30.14F
OMAHA EPPLEY   MOSUNNY   73  36  25 S15       30.12F
BEATRICE       SUNNY     72  41  32 S15       30.16F
FALLS CITY     SUNNY     71  37  28 S13G21    30.19F
NEBRASKA CITY  SUNNY     71  40  31 SW16      30.17F
PLATTSMOUTH    SUNNY     73  37  27 S14       30.15F
$$

NEZ044-045-051>053-067-162300-
OMAHA AREA

CITY           SKY/WX    TMP DP  RH WIND       PRES   REMARKS
OMAHA EPPLEY   MOSUNNY   73  36  25 S15       30.12F
BLAIR          SUNNY     74  38  26 S15G22    30.12F
FREMONT        SUNNY     73  37  27 S12       30.11F
MILLARD        SUNNY     74  38  26 S12       30.13F
OFFUTT AFB     SUNNY     73  36  26 S13       30.12F
PLATTSMOUTH    SUNNY     73  37  27 S14       30.15F
WAHOO          FAIR      75  35  23 S16G22    30.11F
$$




USA.gov is the U.S. government's official web portal to all federal, state and local government web resources and services.